Weather History for KLAW - December, 2012

Change the Weather History Date:

Saturday, December 1, 2012

  Actual Average Record
Temperature  
Mean Temperature 67 °F -  
Max Temperature 82 °F 58 °F 82 °F (2012)
Min Temperature 52 °F 32 °F 10 °F (2006)
Cooling Degree Days 2    
Growing Degree Days 17 (Base 50)    
Moisture  
Dew Point 50 °F    
Average Humidity 65    
Maximum Humidity 93    
Minimum Humidity 23    
Precipitation  
Precipitation 0.00 in - - ()
Sea Level Pressure  
Sea Level Pressure 29.89 in    
Wind  
Wind Speed 11 mph (South)    
Max Wind Speed 21 mph    
Max Gust Speed 28 mph    
Visibility 10 miles    
Events      
Averages and records for this station are not official NWS values.
T = Trace of Precipitation, MM = Missing Value Source: NWS Daily Summary

Daily Weather History Graph

Daily Weather History Graph

Search for Another Location

Airport or City:

Trip Planner

Search our weather history database for the weather conditions in past years. The results will help you decide how hot, cold, wet, or windy it might be!

Date:

Astronomy

Dec. 01, 2012 Rise Set
Actual Time 7:22 AM CST 5:23 PM CST
Civil Twilight 6:55 AM CST 5:50 PM CST
Nautical Twilight 6:23 AM CST 6:21 PM CST
Astronomical Twilight 5:53 AM CST 6:52 PM CST
Moon 8:12 PM CST (12/1) 9:38 AM CST (12/1)
Length of Visible Light 10h 55m
Length of Day
10h 00m
Waning Gibbous, 91% of the Moon is Illuminated
Dec 1
Waning Gibbous
Dec 6
Last Quarter
Dec 13
New
Dec 19
First Quarter
Dec 28
Full

Hourly Weather History & Observations

Time (CST) Temp. Dew Point Humidity Pressure Visibility Wind Dir Wind Speed Gust Speed Precip Events Conditions
12:53 AM 60.1 °F 55.0 °F 83% 29.94 in 10.0 mi SSE 10.4 mph - N/A   Clear
2:53 AM 57.0 °F 54.0 °F 89% 29.92 in 10.0 mi SSE 10.4 mph - N/A   Clear
3:53 AM 57.0 °F 54.0 °F 89% 29.91 in 10.0 mi South 9.2 mph - N/A   Clear
4:53 AM 55.9 °F 54.0 °F 93% 29.90 in 10.0 mi South 8.1 mph - N/A   Clear
5:53 AM 55.9 °F 54.0 °F 93% 29.91 in 10.0 mi SSE 9.2 mph - N/A   Clear
6:53 AM 55.9 °F 54.0 °F 93% 29.92 in 9.0 mi SSE 8.1 mph - N/A   Clear
7:53 AM 57.9 °F 55.0 °F 90% 29.92 in 8.0 mi South 15.0 mph 21.9 mph N/A   Clear
8:53 AM 60.1 °F 57.0 °F 90% 29.92 in 9.0 mi South 16.1 mph 26.5 mph N/A   Scattered Clouds
9:00 AM 60.8 °F 57.2 °F 88% 29.93 in 9.0 mi South 15.0 mph - N/A   Mostly Cloudy
9:33 AM 62.6 °F 57.2 °F 82% 29.93 in 10.0 mi South 20.7 mph 27.6 mph N/A   Partly Cloudy
9:53 AM 64.0 °F 57.9 °F 80% 29.93 in 10.0 mi South 18.4 mph 27.6 mph N/A   Clear
10:53 AM 68.0 °F 55.9 °F 65% 29.91 in 10.0 mi SSW 15.0 mph 24.2 mph N/A   Clear
11:53 AM 73.0 °F 55.9 °F 55% 29.88 in 10.0 mi SSW 17.3 mph 26.5 mph N/A   Clear
1:53 PM 79.0 °F 46.0 °F 31% 29.83 in 10.0 mi SSW 15.0 mph 25.3 mph N/A   Clear
2:53 PM 82.0 °F 46.0 °F 28% 29.81 in 10.0 mi SSW 15.0 mph 24.2 mph N/A   Clear
3:53 PM 82.9 °F 41.0 °F 23% 29.81 in 10.0 mi South 15.0 mph 26.5 mph N/A   Clear
5:53 PM 73.9 °F 39.0 °F 28% 29.83 in 10.0 mi South 10.4 mph - N/A   Clear
6:53 PM 70.0 °F 43.0 °F 38% 29.85 in 10.0 mi South 9.2 mph - N/A   Clear
7:53 PM 63.0 °F 46.0 °F 54% 29.87 in 10.0 mi South 8.1 mph - N/A   Clear
8:53 PM 62.1 °F 41.0 °F 46% 29.88 in 10.0 mi South 5.8 mph - N/A   Clear
9:53 PM 60.1 °F 39.9 °F 47% 29.90 in 10.0 mi SSW 8.1 mph - N/A   Clear
10:53 PM 52.0 °F 39.0 °F 61% 29.92 in 10.0 mi Calm Calm - N/A   Clear
11:53 PM 53.1 °F 37.9 °F 57% 29.93 in 10.0 mi South 3.5 mph - N/A   Clear